TimeCDT,TemperatureF,Dew PointF,Humidity,Sea Level PressureIn,VisibilityMPH,Wind Direction,Wind SpeedMPH,Gust SpeedMPH,PrecipitationIn,Events,Conditions,WindDirDegrees,DateUTC
12:15 AM,60.8,44.6,55,29.28,10.0,SSE,12.7,-,N/A,,Overcast,150,2012-10-17 05:15:00
12:35 AM,64.4,42.8,45,29.28,10.0,SSE,8.1,-,N/A,,Overcast,160,2012-10-17 05:35:00
12:55 AM,66.2,41.0,40,29.28,10.0,South,13.8,-,N/A,,Overcast,170,2012-10-17 05:55:00
1:15 AM,66.2,39.2,37,29.26,10.0,SSE,9.2,-,N/A,,Mostly Cloudy,150,2012-10-17 06:15:00
1:35 AM,66.2,39.2,37,29.24,10.0,South,12.7,-,N/A,,Partly Cloudy,170,2012-10-17 06:35:00
1:55 AM,66.2,39.2,37,29.22,10.0,South,11.5,-,N/A,,Partly Cloudy,180,2012-10-17 06:55:00
2:15 AM,66.2,39.2,37,29.22,10.0,SSW,15.0,18.4,N/A,,Clear,200,2012-10-17 07:15:00
2:35 AM,66.2,39.2,37,29.22,10.0,SW,13.8,-,N/A,,Clear,220,2012-10-17 07:35:00
2:55 AM,66.2,39.2,37,29.24,10.0,WSW,27.6,40.3,N/A,,Clear,250,2012-10-17 07:55:00
3:15 AM,64.4,46.4,52,29.27,10.0,West,26.5,41.4,N/A,,Mostly Cloudy,270,2012-10-17 08:15:00
3:35 AM,62.6,46.4,55,29.28,10.0,West,24.2,36.8,N/A,,Overcast,260,2012-10-17 08:35:00
3:55 AM,60.8,48.2,63,29.29,10.0,West,25.3,39.1,N/A,,Mostly Cloudy,270,2012-10-17 08:55:00
4:15 AM,60.8,48.2,63,29.29,10.0,West,34.5,40.3,N/A,,Mostly Cloudy,280,2012-10-17 09:15:00
4:35 AM,60.8,48.2,63,29.31,10.0,West,29.9,47.2,N/A,,Overcast,280,2012-10-17 09:35:00
4:55 AM,-9999,-9999,N/A,29.31,10.0,West,36.8,48.3,N/A,,Overcast,280,2012-10-17 09:55:00
5:15 AM,-9999,-9999,N/A,29.33,10.0,West,35.7,44.9,N/A,,Mostly Cloudy,280,2012-10-17 10:15:00
5:35 AM,57.2,44.6,63,29.35,10.0,West,32.2,42.6,N/A,,Scattered Clouds,280,2012-10-17 10:35:00
5:55 AM,57.2,44.6,63,29.37,10.0,WNW,28.8,42.6,N/A,,Scattered Clouds,290,2012-10-17 10:55:00
6:15 AM,57.2,44.6,63,29.37,10.0,WNW,20.7,34.5,N/A,,Clear,290,2012-10-17 11:15:00
6:35 AM,57.2,41.0,55,29.38,10.0,WNW,28.8,39.1,N/A,,Clear,290,2012-10-17 11:35:00
6:55 AM,55.4,42.8,63,29.39,10.0,WNW,23.0,33.4,N/A,,Mostly Cloudy,290,2012-10-17 11:55:00
7:15 AM,55.4,42.8,63,29.40,10.0,West,21.9,29.9,N/A,,Overcast,280,2012-10-17 12:15:00
7:35 AM,55.4,39.2,54,29.40,10.0,WNW,26.5,32.2,N/A,,Overcast,290,2012-10-17 12:35:00
7:55 AM,53.6,37.4,54,29.42,10.0,West,21.9,28.8,N/A,,Scattered Clouds,280,2012-10-17 12:55:00
8:15 AM,53.6,35.6,51,29.42,10.0,West,25.3,34.5,N/A,,Clear,280,2012-10-17 13:15:00
8:35 AM,53.6,33.8,47,29.42,10.0,West,21.9,29.9,N/A,,Clear,280,2012-10-17 13:35:00
8:55 AM,53.6,32.0,44,29.42,10.0,West,24.2,35.7,N/A,,Clear,280,2012-10-17 13:55:00
9:15 AM,53.6,32.0,44,29.43,10.0,West,21.9,33.4,N/A,,Clear,270,2012-10-17 14:15:00
9:35 AM,55.4,33.8,44,29.44,10.0,West,36.8,46.0,N/A,,Clear,280,2012-10-17 14:35:00
9:55 AM,-9999,-9999,N/A,29.44,9.0,West,32.2,48.3,N/A,,Clear,280,2012-10-17 14:55:00
10:15 AM,-9999,-9999,N/A,29.44,10.0,West,28.8,48.3,N/A,,Partly Cloudy,280,2012-10-17 15:15:00
10:35 AM,55.4,33.8,44,29.46,10.0,West,28.8,38.0,N/A,,Mostly Cloudy,280,2012-10-17 15:35:00
10:55 AM,-9999,-9999,N/A,29.46,10.0,West,31.1,48.3,N/A,,Overcast,280,2012-10-17 15:55:00
11:15 AM,53.6,33.8,47,29.47,10.0,West,32.2,40.3,N/A,,Overcast,280,2012-10-17 16:15:00
11:35 AM,53.6,35.6,51,29.47,10.0,West,29.9,43.7,N/A,,Overcast,280,2012-10-17 16:35:00
11:55 AM,53.6,33.8,47,29.47,10.0,West,33.4,42.6,N/A,,Overcast,280,2012-10-17 16:55:00
12:15 PM,53.6,35.6,51,29.47,10.0,West,28.8,39.1,N/A,,Overcast,280,2012-10-17 17:15:00
12:35 PM,-9999,-9999,N/A,29.47,10.0,West,34.5,46.0,N/A,,Overcast,280,2012-10-17 17:35:00
12:55 PM,53.6,35.6,51,29.48,10.0,West,34.5,47.2,N/A,,Overcast,280,2012-10-17 17:55:00
1:15 PM,-9999,-9999,N/A,29.48,10.0,WNW,34.5,46.0,N/A,,Overcast,290,2012-10-17 18:15:00
1:35 PM,53.6,33.8,47,29.48,10.0,WNW,32.2,40.3,N/A,,Overcast,290,2012-10-17 18:35:00
1:55 PM,53.6,33.8,47,29.47,10.0,WNW,24.2,39.1,N/A,,Overcast,290,2012-10-17 18:55:00
2:15 PM,53.6,32.0,44,29.47,10.0,West,28.8,41.4,N/A,,Overcast,280,2012-10-17 19:15:00
2:35 PM,-9999,-9999,N/A,29.47,10.0,West,34.5,46.0,N/A,,Mostly Cloudy,280,2012-10-17 19:35:00
2:55 PM,51.8,32.0,47,29.47,10.0,West,26.5,41.4,N/A,,Mostly Cloudy,280,2012-10-17 19:55:00
3:15 PM,51.8,33.8,50,29.48,10.0,WNW,28.8,44.9,N/A,,Scattered Clouds,290,2012-10-17 20:15:00
3:35 PM,48.2,33.8,58,29.49,8.0,West,24.2,48.3,N/A,,Mostly Cloudy,280,2012-10-17 20:35:00
3:55 PM,51.8,32.0,47,29.49,10.0,WNW,31.1,43.7,N/A,,Mostly Cloudy,290,2012-10-17 20:55:00
4:15 PM,-9999,-9999,N/A,29.49,10.0,WNW,36.8,42.6,N/A,,Scattered Clouds,290,2012-10-17 21:15:00
4:35 PM,53.6,30.2,41,29.49,10.0,NW,24.2,35.7,N/A,,Clear,310,2012-10-17 21:35:00
4:55 PM,55.4,28.4,36,29.49,10.0,WNW,25.3,33.4,N/A,,Clear,300,2012-10-17 21:55:00
5:15 PM,55.4,24.8,31,29.49,10.0,WNW,24.2,38.0,N/A,,Clear,300,2012-10-17 22:15:00
5:35 PM,57.2,21.2,25,29.49,9.0,WNW,36.8,46.0,N/A,,Clear,300,2012-10-17 22:35:00
5:55 PM,57.2,17.6,21,29.49,5.0,WNW,33.4,44.9,N/A,,Clear,300,2012-10-17 22:55:00
6:15 PM,-9999,-9999,N/A,29.49,2.5,WNW,35.7,47.2,N/A,,Clear,300,2012-10-17 23:15:00
6:55 PM,-9999,-9999,N/A,29.50,8.0,WNW,39.1,49.5,N/A,,Clear,290,2012-10-17 23:55:00
7:15 PM,55.4,15.8,21,29.51,10.0,WNW,26.5,46.0,N/A,,Clear,300,2012-10-18 00:15:00
7:35 PM,53.6,15.8,22,29.52,10.0,WNW,20.7,34.5,N/A,,Clear,290,2012-10-18 00:35:00
7:55 PM,53.6,17.6,24,29.52,10.0,WNW,23.0,28.8,N/A,,Clear,290,2012-10-18 00:55:00
8:15 PM,53.6,17.6,24,29.52,10.0,WNW,24.2,29.9,N/A,,Clear,290,2012-10-18 01:15:00
8:35 PM,53.6,17.6,24,29.52,10.0,WNW,23.0,29.9,N/A,,Clear,290,2012-10-18 01:35:00
8:55 PM,53.6,17.6,24,29.52,10.0,West,20.7,27.6,N/A,,Clear,280,2012-10-18 01:55:00
9:15 PM,55.4,17.6,23,29.51,10.0,WNW,28.8,36.8,N/A,,Clear,290,2012-10-18 02:15:00
9:35 PM,55.4,17.6,23,29.52,10.0,WNW,27.6,42.6,N/A,,Clear,290,2012-10-18 02:35:00
9:55 PM,53.6,17.6,24,29.52,10.0,WNW,24.2,31.1,N/A,,Clear,290,2012-10-18 02:55:00
10:15 PM,53.6,15.8,22,29.52,10.0,West,27.6,36.8,N/A,,Clear,280,2012-10-18 03:15:00
10:35 PM,53.6,15.8,22,29.52,10.0,West,26.5,36.8,N/A,,Clear,280,2012-10-18 03:35:00
10:55 PM,53.6,19.4,26,29.52,10.0,WNW,33.4,50.6,N/A,,Clear,290,2012-10-18 03:55:00
11:15 PM,-9999,-9999,N/A,29.51,10.0,WNW,34.5,44.9,N/A,,Clear,290,2012-10-18 04:15:00
11:35 PM,51.8,19.4,28,29.51,10.0,WNW,27.6,32.2,N/A,,Clear,300,2012-10-18 04:35:00
11:55 PM,-9999,-9999,N/A,29.50,10.0,WNW,32.2,44.9,N/A,,Clear,290,2012-10-18 04:55:00